Midland, MI

3:46 PM EDT on April 29, 2017 (GMT -0400)
Barstow

Weather History for KIKW - March, 2013

Change the Weather History Date:

Wednesday, March 27, 2013

  Actual Average (KMBS) Record (KMBS)
Temperature  
Mean Temperature 40 °F -  
Max Temperature 48 °F 45 °F 74 °F (1998)
Min Temperature 31 °F 29 °F 12 °F (2011)
Degree Days  
Heating Degree Days 26    
Moisture  
Dew Point 26 °F    
Average Humidity 61    
Maximum Humidity 79    
Minimum Humidity 44    
Precipitation  
Precipitation 0.00 in - - ()
Sea Level Pressure  
Sea Level Pressure 30.13 in    
Wind  
Wind Speed 9 mph (WNW)    
Max Wind Speed 20 mph    
Max Gust Speed 25 mph    
Visibility 10 miles    
Events      
Averages and records for this station are not official NWS values.
T = Trace of Precipitation, MM = Missing Value Source: NWS Daily Summary

Daily Weather History Graph

Daily Weather History Graph

Search for Another Location

Airport or City:

Trip Planner

Search our weather history database for the weather conditions in past years. The results will help you decide how hot, cold, wet, or windy it might be!

Date:

Astronomy

Mar. 27, 2013 Rise Set
Actual Time 7:27 AM EDT 7:58 PM EDT
Civil Twilight 6:58 AM EDT 8:26 PM EDT
Nautical Twilight 6:24 AM EDT 9:01 PM EDT
Astronomical Twilight 5:49 AM EDT 9:36 PM EDT
Moon 8:43 PM EDT (3/27) 7:16 AM EDT (3/27)
Length of Visible Light 13h 28m
Length of Day
12h 30m
Full, 100% of the Moon is Illuminated
Mar 27
Full
Apr 3
Last Quarter
Apr 10
New
Apr 18
First Quarter
Apr 25
Full

Hourly Weather History & Observations

Time (EDT) Temp. Windchill Dew Point Humidity Pressure Visibility Wind Dir Wind Speed Gust Speed Precip Events Conditions
12:14 AM 35.6 °F 29.2 °F 23.9 °F 62% 30.11 in 10.0 mi WNW 8.1 mph - N/A   Overcast
12:34 AM 34.9 °F 28.3 °F 23.9 °F 64% 30.11 in 10.0 mi WNW 8.1 mph - N/A   Mostly Cloudy
12:54 AM 34.3 °F 27.7 °F 23.7 °F 65% 30.11 in 10.0 mi WNW 8.1 mph - N/A   Scattered Clouds
1:13 AM 33.4 °F 25.9 °F 23.9 °F 68% 30.10 in 10.0 mi WNW 9.2 mph - N/A   Clear
1:34 AM 33.3 °F 27.1 °F 23.7 °F 68% 30.11 in 10.0 mi WNW 6.9 mph - N/A   Clear
1:54 AM 32.9 °F 26.7 °F 23.7 °F 69% 30.10 in 10.0 mi West 6.9 mph - N/A   Clear
2:13 AM 32.2 °F 26.7 °F 23.7 °F 71% 30.10 in 10.0 mi West 5.8 mph - N/A   Clear
2:34 AM 32.0 °F 26.4 °F 23.7 °F 71% 30.10 in 10.0 mi West 5.8 mph - N/A   Clear
2:54 AM 32.0 °F 26.4 °F 23.7 °F 71% 30.10 in 10.0 mi West 5.8 mph - N/A   Clear
3:13 AM 32.0 °F 25.6 °F 23.7 °F 71% 30.10 in 10.0 mi West 6.9 mph - N/A   Clear
3:34 AM 31.6 °F 26.0 °F 23.7 °F 73% 30.09 in 10.0 mi West 5.8 mph - N/A   Clear
3:54 AM 31.1 °F 23.7 °F 23.7 °F 74% 30.09 in 10.0 mi WNW 8.1 mph - N/A   Clear
4:13 AM 31.1 °F 26.4 °F 23.7 °F 74% 30.09 in 10.0 mi West 4.6 mph - N/A   Clear
4:34 AM 31.1 °F 23.7 °F 23.9 °F 75% 30.09 in 10.0 mi West 8.1 mph - N/A   Mostly Cloudy
4:54 AM 31.8 °F 26.2 °F 24.4 °F 74% 30.09 in 10.0 mi WNW 5.8 mph - N/A   Overcast
5:13 AM 32.0 °F 27.5 °F 24.8 °F 75% 30.10 in 10.0 mi WNW 4.6 mph - N/A   Overcast
5:34 AM 32.0 °F 24.8 °F 25.0 °F 75% 30.10 in 10.0 mi WNW 8.1 mph - N/A   Overcast
5:54 AM 32.0 °F 25.6 °F 25.3 °F 76% 30.10 in 10.0 mi WNW 6.9 mph - N/A   Overcast
6:13 AM 32.0 °F 24.8 °F 25.5 °F 77% 30.11 in 10.0 mi WNW 8.1 mph - N/A   Mostly Cloudy
6:34 AM 31.8 °F 24.6 °F 25.5 °F 78% 30.11 in 10.0 mi WNW 8.1 mph - N/A   Scattered Clouds
6:53 AM 32.0 °F 25.6 °F 25.5 °F 77% 30.12 in 10.0 mi WNW 6.9 mph - N/A   Mostly Cloudy
7:14 AM 32.0 °F 24.8 °F 25.3 °F 76% 30.12 in 10.0 mi WNW 8.1 mph - N/A   Mostly Cloudy
7:33 AM 31.5 °F 24.9 °F 25.3 °F 78% 30.12 in 10.0 mi West 6.9 mph - N/A   Scattered Clouds
7:54 AM 31.6 °F 24.4 °F 25.5 °F 78% 30.12 in 10.0 mi WNW 8.1 mph - N/A   Scattered Clouds
8:13 AM 31.8 °F 25.4 °F 25.7 °F 78% 30.13 in 10.0 mi West 6.9 mph - N/A   Scattered Clouds
8:34 AM 32.0 °F 24.2 °F 26.1 °F 79% 30.13 in 10.0 mi West 9.2 mph - N/A   Overcast
8:53 AM 32.4 °F 25.3 °F 26.1 °F 78% 30.14 in 10.0 mi West 8.1 mph - N/A   Mostly Cloudy
9:14 AM 34.9 °F 27.7 °F 27.0 °F 73% 30.14 in 10.0 mi WNW 9.2 mph 17.3 mph N/A   Overcast
9:34 AM 35.8 °F 26.9 °F 27.1 °F 71% 30.14 in 10.0 mi WNW 13.8 mph 17.3 mph N/A   Mostly Cloudy
9:53 AM 36.7 °F 28.9 °F 27.5 °F 69% 30.14 in 10.0 mi WNW 11.5 mph 16.1 mph N/A   Scattered Clouds
10:14 AM 37.6 °F 30.0 °F 27.5 °F 67% 30.14 in 10.0 mi NW 11.5 mph - N/A   Clear
10:34 AM 39.0 °F 31.4 °F 27.9 °F 64% 30.14 in 10.0 mi WNW 12.7 mph 16.1 mph N/A   Clear
10:53 AM 39.7 °F 32.3 °F 28.0 °F 63% 30.14 in 10.0 mi West 12.7 mph 17.3 mph N/A   Clear
11:14 AM 40.3 °F 34.4 °F 28.0 °F 62% 30.14 in 10.0 mi West 9.2 mph 17.3 mph N/A   Clear
11:34 AM 41.7 °F 35.2 °F 28.2 °F 59% 30.14 in 10.0 mi West 11.5 mph - N/A   Clear
11:54 AM 42.3 °F 35.1 °F 27.5 °F 56% 30.14 in 10.0 mi West 13.8 mph 17.3 mph N/A   Clear
12:14 PM 43.7 °F 36.6 °F 27.0 °F 52% 30.14 in 10.0 mi West 15.0 mph 19.6 mph N/A   Clear
12:34 PM 44.1 °F 38.1 °F 27.1 °F 51% 30.13 in 10.0 mi NW 11.5 mph 19.6 mph N/A   Clear
12:54 PM 44.2 °F 37.6 °F 26.8 °F 50% 30.13 in 10.0 mi WNW 13.8 mph 24.2 mph N/A   Clear
1:14 PM 45.0 °F 38.5 °F 27.3 °F 50% 30.13 in 10.0 mi West 13.8 mph 20.7 mph N/A   Scattered Clouds
1:34 PM 46.0 °F 40.6 °F 27.5 °F 48% 30.12 in 10.0 mi West 11.5 mph 21.9 mph N/A   Mostly Cloudy
1:54 PM 46.8 °F - 27.0 °F 46% 30.12 in 10.0 mi West 19.6 mph 25.3 mph N/A   Mostly Cloudy
2:14 PM 46.4 °F 39.8 °F 27.1 °F 47% 30.12 in 10.0 mi West 16.1 mph 23.0 mph N/A   Scattered Clouds
2:33 PM 46.6 °F - 26.6 °F 46% 30.12 in 10.0 mi West 12.7 mph 23.0 mph N/A   Mostly Cloudy
2:54 PM 47.5 °F - 27.3 °F 46% 30.12 in 10.0 mi WNW 17.3 mph 21.9 mph N/A   Mostly Cloudy
3:14 PM 46.9 °F - 26.8 °F 45% 30.12 in 10.0 mi West 15.0 mph 25.3 mph N/A   Mostly Cloudy
3:34 PM 47.7 °F - 26.8 °F 44% 30.11 in 10.0 mi WNW 10.4 mph 23.0 mph N/A   Mostly Cloudy
3:54 PM 46.9 °F - 25.9 °F 44% 30.11 in 10.0 mi WNW 15.0 mph 23.0 mph N/A   Overcast
4:14 PM 48.0 °F - 26.8 °F 44% 30.11 in 10.0 mi WNW 12.7 mph 23.0 mph N/A   Overcast
4:34 PM 46.2 °F 41.2 °F 25.9 °F 45% 30.11 in 10.0 mi WNW 10.4 mph 23.0 mph N/A   Overcast
4:54 PM 45.5 °F 39.6 °F 25.2 °F 45% 30.12 in 10.0 mi WNW 12.7 mph 23.0 mph N/A   Overcast
5:14 PM 45.5 °F 38.6 °F 25.2 °F 45% 30.11 in 10.0 mi WNW 16.1 mph 21.9 mph N/A   Overcast
5:34 PM 45.7 °F 39.5 °F 25.0 °F 44% 30.11 in 10.0 mi WNW 13.8 mph 21.9 mph N/A   Overcast
5:54 PM 45.5 °F 39.2 °F 25.7 °F 46% 30.12 in 10.0 mi WNW 13.8 mph 18.4 mph N/A   Mostly Cloudy
6:14 PM 45.0 °F 38.2 °F 25.3 °F 46% 30.12 in 10.0 mi WNW 15.0 mph 21.9 mph N/A   Overcast
6:34 PM 45.7 °F 40.2 °F 25.9 °F 46% 30.13 in 10.0 mi NW 11.5 mph 18.4 mph N/A   Overcast
6:54 PM 44.2 °F 37.6 °F 26.1 °F 49% 30.13 in 10.0 mi NNW 13.8 mph 18.4 mph N/A   Overcast
7:14 PM 43.3 °F 37.7 °F 26.2 °F 51% 30.14 in 10.0 mi NW 10.4 mph 18.4 mph N/A   Overcast
7:35 PM 42.8 °F 38.0 °F 26.2 °F 52% 30.15 in 10.0 mi NW 8.1 mph - N/A   Overcast
7:54 PM 42.1 °F 36.6 °F 25.9 °F 53% 30.15 in 10.0 mi NW 9.2 mph 17.3 mph N/A   Overcast
8:14 PM 41.7 °F 37.3 °F 26.1 °F 54% 30.16 in 10.0 mi NW 6.9 mph - N/A   Overcast
8:34 PM 41.2 °F 35.5 °F 25.7 °F 54% 30.16 in 10.0 mi WNW 9.2 mph - N/A   Overcast
8:54 PM 40.8 °F 35.6 °F 25.7 °F 55% 30.17 in 10.0 mi WNW 8.1 mph 16.1 mph N/A   Overcast
9:14 PM 40.3 °F 33.9 °F 25.7 °F 56% 30.17 in 10.0 mi NW 10.4 mph - N/A   Overcast
9:34 PM 39.4 °F 34.5 °F 25.5 °F 58% 30.17 in 10.0 mi NW 6.9 mph - N/A   Overcast
9:54 PM 38.5 °F 34.1 °F 25.7 °F 60% 30.18 in 10.0 mi WNW 5.8 mph - N/A   Scattered Clouds
10:14 PM 36.9 °F 33.1 °F 25.5 °F 64% 30.18 in 10.0 mi WNW 4.6 mph - N/A   Clear
10:34 PM 36.5 °F 32.7 °F 25.7 °F 65% 30.19 in 10.0 mi WNW 4.6 mph - N/A   Clear
10:54 PM 36.0 °F 32.1 °F 25.5 °F 66% 30.18 in 10.0 mi WNW 4.6 mph - N/A   Clear
11:14 PM 36.3 °F 32.5 °F 25.7 °F 65% 30.19 in 10.0 mi WNW 4.6 mph - N/A   Clear
11:34 PM 35.8 °F 30.1 °F 25.5 °F 66% 30.19 in 10.0 mi WNW 6.9 mph - N/A   Clear
11:54 PM 35.1 °F 31.0 °F 25.5 °F 68% 30.19 in 10.0 mi West 4.6 mph - N/A   Clear